• In Netherlands
  • List of Countries
  • For 7 days
  • Water Temperature
  • Satellite Maps
  • Weather Map
  • Weather Widgets
  • user-avatar
    Login

    Hourly Weather Herāt

    Today, 27 April, Thursday

    Time Temperature Precipitation Wind Pressure Humidity
    00:00 +11°C° 0 mm 11 mps 683 mmHg 64%
    01:00 +9°C° 0 mm 11 mps 683 mmHg 67%
    02:00 +9°C° 0 mm 10 mps 683 mmHg 68%
    03:00 +9°C° 0 mm 10 mps 683 mmHg 69%
    04:00 +9°C° 0 mm 10 mps 683 mmHg 71%
    05:00 +9°C° 0 mm 10 mps 683 mmHg 69%
    06:00 +9°C° 0 mm 10 mps 684 mmHg 67%
    07:00 +11°C° 0 mm 10 mps 684 mmHg 65%
    08:00 +12°C° 0 mm 11 mps 684 mmHg 61%
    09:00 +13°C° 0 mm 11 mps 685 mmHg 57%
    10:00 +14°C° 0 mm 11 mps 685 mmHg 53%
    11:00 +16°C° 0 mm 11 mps 685 mmHg 52%
    12:00 +15°C° 0 mm 12 mps 684 mmHg 51%
    13:00 +17°C° 0 mm 12 mps 684 mmHg 50%
    14:00 +15°C° 0 mm 12 mps 684 mmHg 51%
    15:00 +15°C° 0 mm 12 mps 684 mmHg 52%
    16:00 +16°C° 0 mm 11 mps 684 mmHg 53%
    17:00 +14°C° 0 mm 11 mps 684 mmHg 56%
    18:00 +13°C° 0 mm 11 mps 684 mmHg 59%
    19:00 +12°C° 0 mm 10 mps 684 mmHg 62%
    20:00 +12°C° 0 mm 10 mps 684 mmHg 60%
    21:00 +11°C° 0 mm 10 mps 684 mmHg 59%
    22:00 +11°C° 0 mm 10 mps 685 mmHg 58%
    23:00 +11°C° 0 mm 9 mps 685 mmHg 57%

    Tomorrow, 28 April, Friday

    Time Temperature Precipitation Wind Pressure Humidity
    00:00 +10°C° 0 mm 9 mps 684 mmHg 56%
    01:00 +10°C° 0 mm 9 mps 684 mmHg 55%
    02:00 +10°C° 0 mm 8 mps 684 mmHg 56%
    03:00 +9°C° 0 mm 8 mps 684 mmHg 56%
    04:00 +9°C° 0 mm 8 mps 684 mmHg 57%
    05:00 +8°C° 0 mm 9 mps 684 mmHg 56%
    06:00 +10°C° 0 mm 9 mps 685 mmHg 54%
    07:00 +11°C° 0 mm 10 mps 685 mmHg 53%
    08:00 +12°C° 0 mm 10 mps 685 mmHg 46%
    09:00 +14°C° 0 mm 10 mps 685 mmHg 40%
    10:00 +17°C° 0 mm 10 mps 686 mmHg 33%
    11:00 +18°C° 0 mm 11 mps 685 mmHg 30%
    12:00 +18°C° 0 mm 11 mps 685 mmHg 28%
    13:00 +19°C° 0 mm 11 mps 685 mmHg 26%
    14:00 +19°C° 0 mm 11 mps 684 mmHg 25%
    15:00 +19°C° 0 mm 12 mps 684 mmHg 25%
    16:00 +18°C° 0 mm 12 mps 683 mmHg 25%
    17:00 +17°C° 0 mm 11 mps 683 mmHg 25%
    18:00 +16°C° 0 mm 10 mps 683 mmHg 26%
    19:00 +13°C° 0 mm 10 mps 683 mmHg 27%
    20:00 +13°C° 0 mm 9 mps 683 mmHg 26%
    21:00 +12°C° 0 mm 9 mps 683 mmHg 26%
    22:00 +11°C° 0 mm 8 mps 683 mmHg 26%
    23:00 +11°C° 0 mm 8 mps 683 mmHg 27%

    Day after tomorrow, 29 April, Saturday

    Time Temperature Precipitation Wind Pressure Humidity
    00:00 +10°C° 0 mm 7 mps 683 mmHg 28%
    01:00 +10°C° 0 mm 7 mps 682 mmHg 29%
    02:00 +9°C° 0 mm 6 mps 682 mmHg 29%
    03:00 +9°C° 0 mm 6 mps 682 mmHg 29%
    04:00 +8°C° 0 mm 5 mps 682 mmHg 30%
    05:00 +9°C° 0 mm 5 mps 682 mmHg 28%
    06:00 +10°C° 0 mm 5 mps 682 mmHg 26%
    07:00 +12°C° 0 mm 5 mps 683 mmHg 24%
    08:00 +15°C° 0 mm 6 mps 683 mmHg 20%
    09:00 +17°C° 0 mm 7 mps 684 mmHg 17%
    10:00 +20°C° 0 mm 7 mps 684 mmHg 13%
    11:00 +21°C° 0 mm 8 mps 684 mmHg 13%
    12:00 +22°C° 0 mm 8 mps 683 mmHg 12%
    13:00 +23°C° 0 mm 8 mps 683 mmHg 12%
    14:00 +23°C° 0 mm 8 mps 683 mmHg 12%
    15:00 +23°C° 0 mm 9 mps 682 mmHg 13%
    16:00 +23°C° 0 mm 9 mps 682 mmHg 14%
    17:00 +21°C° 0 mm 8 mps 682 mmHg 16%
    18:00 +18°C° 0 mm 8 mps 682 mmHg 18%
    19:00 +17°C° 0 mm 7 mps 682 mmHg 20%
    20:00 +16°C° 0 mm 6 mps 682 mmHg 20%
    21:00 +15°C° 0 mm 6 mps 682 mmHg 21%
    22:00 +14°C° 0 mm 5 mps 682 mmHg 22%
    23:00 +14°C° 0 mm 5 mps 682 mmHg 22%

    30 April, Sunday

    Time Temperature Precipitation Wind Pressure Humidity
    00:00 +13°C° 0 mm 4 mps 681 mmHg 23%
    01:00 +13°C° 0 mm 4 mps 681 mmHg 23%
    02:00 +12°C° 0 mm 4 mps 681 mmHg 24%
    03:00 +12°C° 0 mm 4 mps 681 mmHg 24%
    04:00 +12°C° 0 mm 4 mps 680 mmHg 25%
    05:00 +13°C° 0 mm 4 mps 681 mmHg 24%
    06:00 +14°C° 0 mm 4 mps 682 mmHg 23%
    07:00 +15°C° 0 mm 4 mps 682 mmHg 22%
    08:00 +17°C° 0 mm 5 mps 683 mmHg 19%
    09:00 +20°C° 0 mm 5 mps 683 mmHg 16%
    10:00 +22°C° 0 mm 6 mps 683 mmHg 13%
    11:00 +24°C° 0 mm 6 mps 683 mmHg 12%
    12:00 +26°C° 0 mm 6 mps 682 mmHg 12%
    13:00 +27°C° 0 mm 7 mps 682 mmHg 11%
    14:00 +26°C° 0 mm 7 mps 682 mmHg 12%
    15:00 +26°C° 0 mm 8 mps 681 mmHg 13%
    16:00 +26°C° 0 mm 8 mps 681 mmHg 14%
    17:00 +23°C° 0 mm 8 mps 681 mmHg 16%
    18:00 +22°C° 0 mm 7 mps 680 mmHg 18%
    19:00 +20°C° 0 mm 6 mps 680 mmHg 20%
    20:00 +19°C° 0 mm 6 mps 680 mmHg 21%
    21:00 +17°C° 0 mm 5 mps 680 mmHg 22%
    22:00 +17°C° 0 mm 4 mps 680 mmHg 23%
    23:00 +17°C° 0 mm 4 mps 680 mmHg 24%

    1 May, Monday

    Time Temperature Precipitation Wind Pressure Humidity
    00:00 +15°C° 0 mm 4 mps 680 mmHg 24%
    01:00 +16°C° 0 mm 3 mps 679 mmHg 25%
    02:00 +14°C° 0 mm 3 mps 679 mmHg 25%
    03:00 +14°C° 0 mm 3 mps 679 mmHg 26%
    04:00 +13°C° 0 mm 3 mps 679 mmHg 26%
    05:00 +16°C° 0 mm 3 mps 679 mmHg 25%
    06:00 +17°C° 0 mm 3 mps 680 mmHg 24%
    07:00 +18°C° 0 mm 3 mps 680 mmHg 23%
    08:00 +20°C° 0 mm 4 mps 681 mmHg 20%
    09:00 +22°C° 0 mm 4 mps 681 mmHg 18%
    10:00 +25°C° 0 mm 4 mps 681 mmHg 16%
    11:00 +26°C° 0 mm 4 mps 681 mmHg 15%
    12:00 +27°C° 0 mm 5 mps 681 mmHg 14%
    13:00 +28°C° 0 mm 5 mps 681 mmHg 13%
    14:00 +27°C° 0 mm 5 mps 680 mmHg 14%
    15:00 +27°C° 0 mm 5 mps 680 mmHg 14%
    16:00 +27°C° 0 mm 6 mps 680 mmHg 15%
    17:00 +26°C° 0 mm 6 mps 680 mmHg 17%
    18:00 +23°C° 0 mm 5 mps 680 mmHg 19%
    19:00 +22°C° 0 mm 5 mps 680 mmHg 22%
    20:00 +21°C° 0 mm 5 mps 680 mmHg 22%
    21:00 +20°C° 0 mm 5 mps 680 mmHg 23%
    22:00 +19°C° 0 mm 5 mps 680 mmHg 23%
    23:00 +19°C° 0 mm 5 mps 680 mmHg 24%

    2 May, Tuesday

    Time Temperature Precipitation Wind Pressure Humidity
    00:00 +18°C° 0 mm 4 mps 680 mmHg 25%
    01:00 +17°C° 0 mm 4 mps 680 mmHg 26%
    02:00 +17°C° 0 mm 4 mps 680 mmHg 26%
    03:00 +15°C° 0 mm 4 mps 680 mmHg 26%
    04:00 +15°C° 0 mm 4 mps 680 mmHg 27%
    05:00 +17°C° 0 mm 4 mps 680 mmHg 26%
    06:00 +18°C° 0 mm 4 mps 681 mmHg 24%
    07:00 +19°C° 0 mm 5 mps 681 mmHg 23%
    08:00 +21°C° 0 mm 5 mps 682 mmHg 21%
    09:00 +23°C° 0 mm 5 mps 682 mmHg 18%
    10:00 +24°C° 0 mm 6 mps 682 mmHg 16%
    11:00 +26°C° 0 mm 7 mps 682 mmHg 15%
    12:00 +27°C° 0 mm 7 mps 681 mmHg 14%
    13:00 +28°C° 0 mm 8 mps 681 mmHg 14%
    14:00 +27°C° 0 mm 8 mps 681 mmHg 14%
    15:00 +27°C° 0 mm 8 mps 680 mmHg 15%
    16:00 +27°C° 0 mm 9 mps 680 mmHg 15%
    17:00 +24°C° 0 mm 8 mps 680 mmHg 17%
    18:00 +23°C° 0 mm 7 mps 680 mmHg 18%
    19:00 +21°C° 0 mm 7 mps 680 mmHg 20%
    20:00 +21°C° 0 mm 6 mps 680 mmHg 21%
    21:00 +20°C° 0 mm 6 mps 680 mmHg 22%
    22:00 +19°C° 0 mm 6 mps 680 mmHg 23%
    23:00 +19°C° 0 mm 6 mps 680 mmHg 24%
    Show more